Tracking 22458 objects as of 3-Mar-2021
HD Live streaming from Space Station
objects crossing your sky now

DELTA 1 R/B

Track DELTA 1 R/B now!
10-day predictions


NORAD ID: 3036
Int'l Code: 1967-114B
Perigee: 1,417.0 km
Apogee: 1,492.0 km
Inclination: 102.2 °
Period: 114.8 minutes
Semi major axis: 7825 km
RCS: 0.589 m2 (medium)
Launch date: November 10, 1967
Source: United States (US)
Launch site: AIR FORCE WESTERN TEST RANGE (AFWTR)

Note: This is a ROCKET BODY
aabbcc
Your satellite tracking list
Your tracking list is empty




NASA's NSSDC Master Catalog

Two Line Element Set (TLE):
1 03036U 67114B   21060.97193405 -.00000053  00000-0 -34946-4 0  9998
2 03036 102.2003 100.9758 0047928 216.8049 206.1794 12.54103460440005
Source of the keplerian elements: AFSPC